ARG1910 SABE-SAAR

Flight info

Callsign ARG1910
Flight time 0h 34m
Altitude 24000
Route ATOVO4B ATOVO W5 ESKON
Aircraft B38M/M-SDE1FGHILORVWXY/HB1

Departure

Time 2026-05-04 00:52
Airport Aeroparque Jorge Newbery (SABE)

Arrival

Time 2026-05-04 01:27
Airport Rosario Islas Malvinas International Airport (SAAR)
Time Latitude Longitude Altitude Speed Heading
2026-05-04 00:40 -34.55855 -58.41175 29 ft 0 kts 44°
2026-05-04 00:41 -34.55862 -58.41183 30 ft 2 kts 47°
2026-05-04 00:41 -34.55872 -58.41195 30 ft 2 kts 40°
2026-05-04 00:41 -34.55877 -58.41200 29 ft 1 kts 345°
2026-05-04 00:41 -34.55883 -58.41197 29 ft 1 kts 320°
2026-05-04 00:42 -34.55888 -58.41192 29 ft 1 kts 313°
2026-05-04 00:42 -34.55892 -58.41187 29 ft 1 kts 311°
2026-05-04 00:45 -34.55874 -58.41212 29 ft 9 kts 308°
2026-05-04 00:46 -34.55877 -58.41288 29 ft 5 kts 211°
2026-05-04 00:46 -34.55919 -58.41294 29 ft 7 kts 147°
2026-05-04 00:46 -34.55960 -58.41236 29 ft 11 kts 124°
2026-05-04 00:46 -34.56011 -58.41155 29 ft 14 kts 127°
2026-05-04 00:47 -34.56075 -58.41051 30 ft 17 kts 126°
2026-05-04 00:47 -34.56149 -58.40928 29 ft 20 kts 117°
2026-05-04 00:47 -34.56174 -58.40813 29 ft 11 kts 125°
2026-05-04 00:47 -34.56224 -58.40724 29 ft 14 kts 124°
2026-05-04 00:48 -34.56287 -58.40611 29 ft 17 kts 123°
2026-05-04 00:48 -34.56360 -58.40500 29 ft 17 kts 137°
2026-05-04 00:48 -34.56400 -58.40458 29 ft 0 kts 139°
2026-05-04 00:51 -34.56421 -58.40436 29 ft 11 kts 139°
2026-05-04 00:51 -34.56524 -58.40368 28 ft 20 kts 188°
2026-05-04 00:51 -34.56563 -58.40424 27 ft 4 kts 287°
2026-05-04 00:51 -34.56546 -58.40459 28 ft 6 kts 302°
2026-05-04 00:52 -34.56509 -58.40526 28 ft 20 kts 304°
2026-05-04 00:52 -34.56275 -58.40944 29 ft 101 kts 304°
2026-05-04 00:52 -34.55760 -58.41876 141 ft 157 kts 304°
2026-05-04 00:52 -34.55120 -58.43006 948 ft 165 kts 308°
2026-05-04 00:53 -34.54436 -58.44165 1901 ft 168 kts 317°
2026-05-04 00:53 -34.53583 -58.45049 2997 ft 158 kts 326°
2026-05-04 00:53 -34.52776 -58.45995 3822 ft 167 kts 312°
2026-05-04 00:53 -34.52068 -58.47089 4624 ft 172 kts 309°
2026-05-04 00:54 -34.51333 -58.48243 5490 ft 174 kts 309°
2026-05-04 00:54 -34.50552 -58.49407 6242 ft 185 kts 309°
2026-05-04 00:54 -34.49690 -58.50677 6785 ft 204 kts 308°
2026-05-04 00:54 -34.48753 -58.52078 7396 ft 222 kts 308°
2026-05-04 00:55 -34.47752 -58.53567 8014 ft 239 kts 308°
2026-05-04 00:55 -34.46662 -58.55194 8621 ft 258 kts 307°
2026-05-04 00:55 -34.45491 -58.56940 9216 ft 275 kts 307°
2026-05-04 00:55 -34.44279 -58.58746 10181 ft 276 kts 307°
2026-05-04 00:56 -34.43045 -58.60582 10973 ft 286 kts 307°
2026-05-04 00:56 -34.41760 -58.62491 11644 ft 299 kts 307°
2026-05-04 00:56 -34.40432 -58.64463 12522 ft 303 kts 306°
2026-05-04 00:56 -34.39096 -58.66447 13525 ft 306 kts 306°
2026-05-04 00:57 -34.37737 -58.68463 14404 ft 311 kts 306°
2026-05-04 00:57 -34.36359 -58.70506 15317 ft 314 kts 305°
2026-05-04 00:57 -34.34985 -58.72539 16231 ft 317 kts 305°
2026-05-04 00:57 -34.33563 -58.74645 17122 ft 321 kts 305°
2026-05-04 00:58 -34.32160 -58.76721 17990 ft 325 kts 305°
2026-05-04 00:58 -34.30720 -58.78852 18789 ft 328 kts 305°
2026-05-04 00:58 -34.29270 -58.80995 19538 ft 331 kts 304°
2026-05-04 00:58 -34.27805 -58.83159 20314 ft 333 kts 304°
2026-05-04 00:59 -34.26376 -58.85271 21031 ft 335 kts 304°
2026-05-04 00:59 -34.24888 -58.87466 21760 ft 338 kts 304°
2026-05-04 00:59 -34.23412 -58.89643 22472 ft 340 kts 304°
2026-05-04 00:59 -34.21907 -58.91862 23173 ft 343 kts 304°
2026-05-04 01:00 -34.20387 -58.94101 23818 ft 346 kts 303°
2026-05-04 01:00 -34.18844 -58.96371 23999 ft 352 kts 303°
2026-05-04 01:00 -34.17280 -58.98669 24019 ft 354 kts 304°
2026-05-04 01:00 -34.15713 -59.00973 24035 ft 354 kts 304°
2026-05-04 01:01 -34.14151 -59.03268 24043 ft 354 kts 304°
2026-05-04 01:01 -34.12586 -59.05564 24051 ft 354 kts 303°
2026-05-04 01:01 -34.11022 -59.07857 24053 ft 354 kts 303°
2026-05-04 01:01 -34.09458 -59.10153 24044 ft 354 kts 303°
2026-05-04 01:02 -34.07909 -59.12423 24047 ft 354 kts 303°
2026-05-04 01:02 -34.06318 -59.14749 24048 ft 355 kts 304°
2026-05-04 01:02 -34.04755 -59.17003 24049 ft 355 kts 304°
2026-05-04 01:02 -34.03172 -59.19289 24056 ft 355 kts 304°
2026-05-04 01:03 -34.01591 -59.21570 24052 ft 355 kts 304°
2026-05-04 01:03 -34.00004 -59.23858 24048 ft 355 kts 304°
2026-05-04 01:03 -33.98422 -59.26137 24048 ft 355 kts 304°
2026-05-04 01:03 -33.96836 -59.28422 24048 ft 355 kts 304°
2026-05-04 01:04 -33.95250 -59.30704 24044 ft 355 kts 304°
2026-05-04 01:04 -33.93664 -59.32986 24044 ft 355 kts 304°
2026-05-04 01:04 -33.92074 -59.35272 24043 ft 355 kts 304°
2026-05-04 01:04 -33.90485 -59.37554 24042 ft 355 kts 304°
2026-05-04 01:05 -33.88897 -59.39834 24045 ft 356 kts 304°
2026-05-04 01:05 -33.87309 -59.42113 24042 ft 356 kts 304°
2026-05-04 01:05 -33.85713 -59.44402 24039 ft 356 kts 304°
2026-05-04 01:05 -33.84140 -59.46655 24039 ft 356 kts 304°
2026-05-04 01:06 -33.82546 -59.48938 24036 ft 356 kts 304°
2026-05-04 01:06 -33.80951 -59.51220 24038 ft 356 kts 304°
2026-05-04 01:06 -33.79359 -59.53497 24039 ft 356 kts 304°
2026-05-04 01:06 -33.77763 -59.55779 24039 ft 356 kts 304°
2026-05-04 01:07 -33.76170 -59.58053 24038 ft 356 kts 304°
2026-05-04 01:07 -33.74577 -59.60327 24037 ft 356 kts 304°
2026-05-04 01:07 -33.72979 -59.62607 24038 ft 356 kts 304°
2026-05-04 01:07 -33.71382 -59.64886 24032 ft 356 kts 304°
2026-05-04 01:08 -33.69784 -59.67159 24035 ft 356 kts 304°
2026-05-04 01:08 -33.68181 -59.69435 24036 ft 356 kts 304°
2026-05-04 01:08 -33.66580 -59.71708 24033 ft 357 kts 304°
2026-05-04 01:08 -33.64999 -59.73951 23823 ft 355 kts 304°
2026-05-04 01:09 -33.63404 -59.76213 23315 ft 354 kts 304°
2026-05-04 01:09 -33.61817 -59.78462 22733 ft 352 kts 304°
2026-05-04 01:09 -33.60238 -59.80699 22191 ft 350 kts 304°
2026-05-04 01:09 -33.58673 -59.82914 21664 ft 347 kts 304°
2026-05-04 01:10 -33.57119 -59.85112 21138 ft 345 kts 304°
2026-05-04 01:10 -33.55563 -59.87311 20614 ft 343 kts 305°
2026-05-04 01:10 -33.54021 -59.89490 20095 ft 342 kts 305°
2026-05-04 01:10 -33.52485 -59.91660 19584 ft 341 kts 305°
2026-05-04 01:11 -33.50952 -59.93822 19070 ft 340 kts 305°
2026-05-04 01:11 -33.49422 -59.95981 18561 ft 339 kts 305°
2026-05-04 01:11 -33.47894 -59.98134 18008 ft 339 kts 306°
2026-05-04 01:11 -33.46369 -60.00282 17465 ft 337 kts 306°
2026-05-04 01:12 -33.44852 -60.02416 16939 ft 335 kts 306°
2026-05-04 01:12 -33.43342 -60.04541 16437 ft 333 kts 306°
2026-05-04 01:12 -33.41863 -60.06621 15943 ft 332 kts 307°
2026-05-04 01:12 -33.40368 -60.08722 15448 ft 330 kts 307°
2026-05-04 01:13 -33.38877 -60.10817 14949 ft 329 kts 307°
2026-05-04 01:13 -33.37394 -60.12898 14460 ft 328 kts 308°
2026-05-04 01:13 -33.35914 -60.14974 13962 ft 328 kts 308°
2026-05-04 01:13 -33.34433 -60.17053 13417 ft 327 kts 308°
2026-05-04 01:14 -33.32975 -60.19146 12906 ft 326 kts 308°
2026-05-04 01:14 -33.31501 -60.21183 12391 ft 324 kts 309°
2026-05-04 01:14 -33.30032 -60.23226 11890 ft 323 kts 309°
2026-05-04 01:14 -33.28588 -60.25240 11396 ft 321 kts 309°
2026-05-04 01:15 -33.27143 -60.27258 10904 ft 320 kts 309°
2026-05-04 01:15 -33.25707 -60.29264 10583 ft 312 kts 309°
2026-05-04 01:15 -33.24321 -60.31201 10398 ft 301 kts 309°
2026-05-04 01:15 -33.23065 -60.33144 10181 ft 290 kts 297°
2026-05-04 01:16 -33.22301 -60.35329 9917 ft 283 kts 291°
2026-05-04 01:16 -33.21563 -60.37509 9464 ft 282 kts 292°
2026-05-04 01:16 -33.20831 -60.39673 9040 ft 281 kts 292°
2026-05-04 01:16 -33.20103 -60.41829 8642 ft 279 kts 292°
2026-05-04 01:17 -33.19383 -60.43964 8243 ft 276 kts 293°
2026-05-04 01:17 -33.18672 -60.46071 7860 ft 274 kts 293°
2026-05-04 01:17 -33.17973 -60.48141 7468 ft 272 kts 293°
2026-05-04 01:17 -33.17266 -60.50232 7097 ft 270 kts 294°
2026-05-04 01:18 -33.16571 -60.52290 6723 ft 263 kts 294°
2026-05-04 01:18 -33.15902 -60.54269 6372 ft 251 kts 294°
2026-05-04 01:18 -33.15261 -60.56162 6011 ft 241 kts 295°
2026-05-04 01:18 -33.14647 -60.57977 5660 ft 231 kts 295°
2026-05-04 01:19 -33.14055 -60.59725 5334 ft 224 kts 295°
2026-05-04 01:19 -33.13476 -60.61435 4988 ft 221 kts 295°
2026-05-04 01:19 -33.12896 -60.63143 4562 ft 222 kts 296°
2026-05-04 01:19 -33.12510 -60.64279 4308 ft 222 kts 296°
2026-05-04 01:20 -33.11931 -60.65985 3994 ft 221 kts 296°
2026-05-04 01:20 -33.11158 -60.68261 3596 ft 221 kts 296°
2026-05-04 01:20 -33.10776 -60.69386 3411 ft 220 kts 296°
2026-05-04 01:20 -33.10021 -60.71610 3074 ft 213 kts 297°
2026-05-04 01:21 -33.09484 -60.73192 2929 ft 198 kts 297°
2026-05-04 01:21 -33.08988 -60.74649 2812 ft 181 kts 298°
2026-05-04 01:21 -33.08514 -60.76036 2760 ft 183 kts 298°
2026-05-04 01:21 -33.08023 -60.77476 2227 ft 194 kts 298°
2026-05-04 01:22 -33.07684 -60.78472 1985 ft 192 kts 298°
2026-05-04 01:22 -33.07207 -60.79880 1941 ft 173 kts 298°
2026-05-04 01:22 -33.06664 -60.81039 1954 ft 151 kts 323°
2026-05-04 01:22 -33.05773 -60.81554 1960 ft 139 kts 353°
2026-05-04 01:23 -33.04856 -60.81514 1972 ft 128 kts
2026-05-04 01:23 -33.03998 -60.81381 2001 ft 121 kts
2026-05-04 01:23 -33.03181 -60.81253 1978 ft 115 kts
2026-05-04 01:23 -33.02400 -60.81107 1993 ft 113 kts
2026-05-04 01:24 -33.01637 -60.80937 1962 ft 113 kts
2026-05-04 01:24 -33.00864 -60.80766 1856 ft 113 kts
2026-05-04 01:24 -33.00092 -60.80597 1732 ft 113 kts
2026-05-04 01:24 -32.99321 -60.80428 1598 ft 113 kts
2026-05-04 01:25 -32.98550 -60.80259 1460 ft 113 kts
2026-05-04 01:25 -32.97773 -60.80089 1313 ft 113 kts
2026-05-04 01:25 -32.96995 -60.79920 1167 ft 114 kts
2026-05-04 01:25 -32.96222 -60.79751 1014 ft 115 kts 10°
2026-05-04 01:26 -32.95434 -60.79580 856 ft 116 kts 11°
2026-05-04 01:26 -32.94615 -60.79402 690 ft 120 kts 10°
2026-05-04 01:26 -32.93786 -60.79223 547 ft 123 kts 11°
2026-05-04 01:26 -32.92923 -60.79037 403 ft 133 kts 11°
2026-05-04 01:27 -32.92009 -60.78842 225 ft 132 kts 12°
2026-05-04 01:27 -32.91143 -60.78648 103 ft 115 kts 11°
2026-05-04 01:27 -32.90558 -60.78513 100 ft 45 kts 11°
2026-05-04 01:27 -32.90358 -60.78458 97 ft 18 kts 26°
2026-05-04 01:28 -32.90319 -60.78449 97 ft 1 kts 313°
2026-05-04 01:28 -32.90321 -60.78460 97 ft 4 kts 255°
2026-05-04 01:28 -32.90353 -60.78483 96 ft 10 kts 187°
2026-05-04 01:28 -32.90466 -60.78493 97 ft 18 kts 189°
2026-05-04 01:29 -32.90590 -60.78522 101 ft 19 kts 190°
2026-05-04 01:29 -32.90733 -60.78553 100 ft 22 kts 190°
2026-05-04 01:29 -32.90893 -60.78565 103 ft 21 kts 165°
2026-05-04 01:29 -32.91036 -60.78504 99 ft 24 kts 155°
2026-05-04 01:30 -32.91183 -60.78388 99 ft 27 kts 140°
2026-05-04 01:30 -32.91305 -60.78271 98 ft 15 kts 141°
2026-05-04 01:30 -32.91393 -60.78186 98 ft 18 kts 141°
2026-05-04 01:30 -32.91503 -60.78191 98 ft 15 kts 199°
2026-05-04 01:31 -32.91592 -60.78231 99 ft 12 kts 202°
2026-05-04 01:31 -32.91652 -60.78240 99 ft 5 kts 134°
2026-05-04 01:31 -32.91663 -60.78210 98 ft 5 kts 108°
2026-05-04 01:31 -32.91676 -60.78167 98 ft 0 kts 111°
2026-05-04 01:32 -32.91681 -60.78153 98 ft 0 kts 111°
2026-05-04 01:32 -32.91685 -60.78140 98 ft 2 kts 111°